Theta_e
339 344 347 347 345 342 341 341 341 341 342 342 341 341 339 341 350 354 352 346 339 338 338 337 338 337 336 337 335 335 336 336 336 336 337 337 338 338 338 337 337 336 335 335 335 335 335 334 332 331 330 330 329 329 329 329 329 329 329 330 330 330 330 330 329 330 329 330 330 329 329 329 329 329
341 340 343 346 347 345 343 343 343 343 344 343 341 341 338 338 343 346 351 350 341 337 339 337 338 338 337 337 335 336 336 336 337 337 337 338 338 338 338 338 337 336 336 335 335 336 335 335 334 333 331 330 329 329 329 329 329 329 329 329 329 328 328 328 329 329 329 329 329 329 329 329 329 329
347 343 341 343 346 346 344 344 344 346 346 346 343 341 338 336 338 339 343 349 344 338 340 338 338 339 339 337 336 336 337 337 337 337 337 338 338 338 338 338 337 337 337 337 337 337 336 336 335 334 332 330 329 328 329 328 328 329 329 328 328 328 329 330 330 330 331 330 330 329 330 329 329 329
352 349 345 342 341 341 343 345 346 346 347 347 346 344 340 336 338 339 340 343 343 340 341 340 340 340 339 339 338 336 336 337 336 337 337 338 338 339 339 338 338 337 338 339 338 337 337 336 335 334 332 330 327 327 327 327 328 328 328 328 329 330 331 332 333 332 332 332 331 331 330 330 330 330
353 352 350 346 341 336 337 341 345 347 347 347 347 346 344 339 338 340 340 340 340 340 341 341 341 340 340 339 338 337 336 337 337 337 338 338 339 338 338 338 338 337 338 338 338 337 336 335 334 333 332 331 330 330 330 329 329 329 329 330 331 332 333 333 333 332 332 332 332 332 331 331 330 330
354 353 352 350 347 341 337 336 339 344 347 348 347 347 346 343 340 339 339 340 340 339 340 340 341 342 341 340 338 337 336 336 337 337 338 339 338 338 338 338 338 337 337 337 337 336 334 334 335 336 335 334 334 333 333 332 331 332 332 332 332 332 332 332 331 330 330 331 331 330 329 329 328 328
355 354 353 352 351 348 345 341 337 339 343 346 347 347 346 346 343 341 340 339 340 339 339 339 339 340 341 341 339 338 337 337 337 338 338 339 339 338 338 338 338 338 337 337 336 335 333 335 337 338 337 336 335 334 334 333 333 333 333 332 332 332 332 331 329 328 328 328 327 326 326 326 326 326
355 355 354 354 353 351 350 348 343 340 340 341 344 345 345 346 346 344 342 341 340 340 339 339 339 338 340 341 340 339 338 338 338 338 338 339 339 339 338 339 339 338 338 338 337 334 334 336 339 339 338 336 335 334 334 333 333 333 332 332 332 332 331 330 329 327 326 326 326 324 322 321 321 322
356 355 354 353 353 352 351 351 349 346 342 340 341 342 344 344 345 345 344 343 341 340 340 340 339 338 338 340 341 340 339 339 338 338 339 339 340 339 338 340 339 339 340 339 337 337 336 338 339 338 337 336 335 335 335 334 333 334 334 333 333 331 331 330 329 327 327 327 327 323 319 317 317 318
357 355 355 353 353 353 352 351 351 349 347 344 343 343 342 343 344 345 345 344 343 342 341 341 340 339 338 340 340 341 341 340 340 340 340 340 341 340 340 339 340 340 340 340 339 338 339 339 339 338 338 337 336 336 335 335 334 335 335 334 333 332 332 332 330 329 328 328 327 322 319 318 317 316
358 356 356 355 354 353 353 352 352 351 349 348 346 345 343 343 344 345 345 344 343 343 342 341 341 340 339 339 339 340 341 341 341 341 341 340 340 340 339 339 340 340 341 341 339 339 339 339 339 339 338 338 337 336 336 336 335 335 335 334 334 333 333 333 331 329 327 327 325 322 320 319 317 314
359 359 358 356 355 354 353 352 352 351 350 349 348 347 346 345 345 345 344 344 344 343 343 342 341 341 340 340 340 340 341 342 341 341 340 340 339 339 340 340 341 341 341 341 340 340 340 339 339 340 338 337 338 337 336 336 336 336 335 335 334 333 333 333 331 328 325 325 323 322 321 319 314 310
359 359 359 358 357 355 355 353 353 351 351 350 349 348 347 347 346 345 345 344 344 343 343 342 342 341 341 341 341 341 341 341 341 340 340 339 339 338 339 340 340 341 341 341 341 340 340 339 339 339 339 338 337 336 336 336 336 336 336 335 335 334 334 333 332 328 325 324 322 322 320 316 310 307
360 359 359 358 358 357 357 355 354 353 352 352 351 349 349 348 346 346 345 344 343 343 343 343 342 341 341 341 341 341 341 341 341 341 341 340 340 339 339 340 339 340 341 341 341 340 340 339 339 339 339 338 337 336 336 336 336 336 336 336 335 334 334 333 332 329 326 323 322 321 318 312 308 306
360 360 359 359 358 358 358 357 356 355 355 353 352 351 351 349 348 347 346 345 344 344 343 343 343 342 341 341 341 341 341 341 341 341 341 340 340 339 339 339 339 340 340 341 340 340 339 340 339 340 339 339 338 337 336 336 336 336 336 335 334 334 334 333 333 330 326 323 323 319 315 310 308 307
360 359 359 359 358 358 358 358 358 357 357 356 354 354 353 351 350 349 348 347 345 344 343 343 343 343 342 342 341 341 341 341 341 342 342 340 340 339 339 339 339 339 340 341 341 341 340 340 340 340 339 338 339 338 337 337 337 336 336 335 334 334 333 333 333 329 325 324 322 317 313 310 309 310
360 360 359 359 359 358 358 358 358 358 357 357 356 355 354 353 352 351 350 348 347 345 344 343 343 343 343 342 342 342 341 341 341 342 342 341 341 340 340 340 339 340 340 340 341 341 341 341 341 341 341 340 340 340 339 337 337 337 337 335 333 333 333 333 333 328 324 323 320 315 312 310 311 312
359 360 360 359 359 359 358 358 358 358 357 357 357 356 355 354 354 352 352 351 349 347 345 344 343 343 343 342 342 342 341 341 341 341 341 341 341 341 341 340 340 340 340 341 341 342 342 341 342 342 342 341 341 341 340 339 338 338 336 334 332 331 333 334 331 326 324 322 318 313 312 311 311 313
359 360 359 360 359 359 358 358 358 358 358 358 356 355 355 355 354 353 353 352 351 349 347 346 345 344 344 343 343 342 342 342 342 341 340 340 340 341 341 341 341 341 341 341 342 342 342 341 342 343 342 342 342 342 341 341 339 337 334 332 331 332 333 333 329 325 323 320 316 313 312 311 312 313
359 359 359 360 360 360 359 359 358 359 359 358 357 356 356 354 354 354 354 353 352 351 350 349 348 348 347 345 344 343 343 342 342 342 341 341 340 340 341 341 341 342 341 341 342 342 342 341 342 342 342 343 343 342 342 341 339 336 333 332 332 333 333 330 326 324 322 318 314 313 312 311 312 313
359 359 359 359 359 360 360 359 359 359 359 358 358 357 356 356 355 355 354 353 352 351 351 351 351 350 348 347 346 344 343 343 342 342 342 341 340 341 340 341 341 341 342 342 342 342 342 342 342 342 342 342 341 341 340 339 337 334 333 332 332 331 330 326 324 323 321 317 314 313 312 312 312 312
359 359 359 359 359 359 358 359 359 359 359 359 358 357 357 357 356 355 355 354 352 353 351 351 351 351 350 348 347 346 345 344 343 342 342 342 341 341 341 341 341 341 342 342 343 343 342 341 341 342 341 340 340 340 338 337 335 334 333 331 330 328 326 324 324 322 319 316 314 313 312 311 312 312
359 359 359 359 359 358 359 358 359 359 359 358 358 357 357 356 356 357 356 355 355 353 352 351 351 350 351 350 348 347 346 345 344 343 343 342 342 341 341 341 341 342 342 342 342 343 342 341 341 341 339 338 338 339 338 336 334 333 332 329 327 326 325 324 323 321 318 316 314 313 312 312 312 313
359 360 360 360 359 360 360 359 360 359 359 359 359 358 356 356 356 357 356 356 356 355 354 353 352 352 351 350 349 348 347 345 344 344 344 343 342 342 341 341 341 342 342 341 342 343 343 341 341 340 340 339 337 337 336 336 334 333 331 328 326 326 325 324 321 319 317 315 313 313 312 311 312 312
360 360 361 361 361 361 361 361 361 360 360 360 360 359 358 357 358 358 357 357 355 352 352 353 352 352 352 350 349 347 346 346 345 344 343 343 343 342 342 341 341 341 341 340 341 343 342 342 340 339 339 339 336 335 334 334 334 332 329 328 327 326 325 323 320 318 317 315 314 313 312 311 312 313
361 361 362 362 362 362 362 362 362 362 362 361 360 361 360 360 360 359 357 356 352 347 348 350 351 352 352 351 350 349 347 347 346 345 344 344 343 343 342 342 341 341 341 341 341 343 342 341 341 339 337 336 335 332 332 331 331 330 328 327 327 326 324 322 320 318 316 315 314 313 312 312 313 313
362 362 362 362 362 362 362 362 362 361 362 361 360 361 360 360 360 358 356 353 349 344 343 344 346 350 351 352 351 350 349 348 347 347 346 345 344 343 343 342 341 340 341 341 341 342 342 341 341 340 339 337 332 329 328 329 328 328 327 326 325 324 323 321 319 317 316 315 314 313 313 313 312 313
361 361 361 361 361 362 361 361 362 361 361 361 360 361 360 359 358 356 354 352 348 344 342 341 342 346 348 350 351 351 352 351 349 348 347 345 344 343 342 342 341 341 341 341 340 341 341 341 341 340 340 338 333 328 326 326 326 326 325 325 324 323 321 319 318 317 315 314 313 313 313 312 312 313
358 358 359 359 360 360 359 358 358 357 356 354 353 352 350 347 345 345 346 346 346 345 345 345 345 346 348 349 351 352 352 352 351 350 347 345 342 342 342 342 341 341 341 340 340 341 341 341 340 339 339 337 334 330 327 325 325 325 324 323 323 321 319 317 316 315 314 313 313 312 312 312 313 314
357 356 355 353 351 348 346 345 343 341 340 338 338 336 336 335 334 335 338 341 342 343 344 346 347 348 348 350 351 352 352 352 351 350 347 343 340 341 342 342 341 341 342 341 341 341 340 340 339 339 337 336 334 332 328 325 324 323 323 322 321 318 316 314 314 313 313 313 312 312 311 313 314 315
344 342 340 338 336 335 334 333 333 333 332 333 333 333 333 333 332 332 334 336 338 340 341 342 344 345 346 348 349 350 351 351 351 350 347 343 341 340 341 341 341 341 342 341 341 340 340 340 340 338 337 335 333 331 329 327 324 322 321 321 320 317 314 314 313 313 312 312 312 312 312 313 315 315
333 332 332 332 332 332 332 332 332 333 333 333 334 334 333 333 332 331 331 332 333 335 337 338 340 341 342 344 344 347 348 350 351 350 346 343 341 340 341 340 341 341 340 340 340 340 340 339 338 337 337 335 332 330 328 326 325 324 322 321 319 317 315 313 312 312 312 312 312 312 312 314 315 315
332 332 332 333 333 333 333 333 333 334 333 333 333 332 332 332 331 331 331 331 331 331 332 334 335 336 338 339 341 343 344 346 348 348 345 342 341 340 341 340 341 340 339 337 337 338 338 336 335 335 336 335 333 331 328 325 324 324 323 320 318 317 315 312 312 312 311 312 312 312 313 315 315 315
332 333 333 334 333 332 332 332 332 332 332 332 333 333 333 332 331 331 331 331 331 330 331 331 331 332 334 335 337 339 341 343 345 346 345 342 341 340 340 340 341 340 339 336 334 334 335 333 332 332 332 331 329 329 328 326 323 322 321 319 318 317 315 314 313 311 310 310 311 312 314 315 315 315
333 333 332 331 331 332 332 332 332 333 332 332 332 332 332 332 331 331 331 331 331 331 331 331 331 331 332 333 333 336 338 340 342 344 344 342 341 340 340 340 340 340 338 336 333 331 331 330 328 326 325 325 324 324 325 325 324 320 318 318 317 316 315 314 312 309 308 309 312 313 315 315 316 314
333 331 331 331 331 331 332 332 332 332 332 332 332 332 332 331 331 331 331 331 331 331 331 331 331 330 331 331 332 333 334 336 339 342 343 341 339 340 340 340 340 340 338 334 331 329 328 328 326 324 323 324 326 325 323 321 321 320 318 317 317 316 314 312 309 307 309 311 314 315 315 316 315 313
332 330 331 331 331 331 332 332 332 332 332 332 332 332 331 331 331 331 331 331 331 331 330 330 330 330 330 331 331 332 332 334 336 339 341 341 339 339 339 339 339 338 335 331 329 328 327 326 325 324 324 326 329 327 322 319 320 320 319 318 317 315 311 309 307 308 311 314 316 317 317 316 314 312
331 330 330 331 331 331 332 331 331 331 331 331 331 331 331 331 331 330 330 330 330 330 330 329 329 329 329 330 331 331 333 334 335 337 339 339 339 339 339 339 338 335 331 329 328 327 326 326 325 324 324 326 327 326 323 320 320 320 319 319 318 315 311 310 309 310 313 315 316 317 316 314 312 312
331 330 330 331 330 330 331 330 330 331 331 331 331 331 331 331 329 328 328 329 329 329 329 329 329 328 328 329 331 331 332 333 334 336 337 338 339 339 339 339 336 333 329 327 326 325 325 324 324 324 324 325 325 325 323 322 321 320 319 318 317 315 313 312 312 312 313 315 317 317 315 312 310 311
330 330 330 330 330 330 329 330 330 331 332 331 331 332 331 330 328 327 328 328 329 329 329 329 329 328 327 328 329 330 332 333 334 335 335 336 336 337 338 338 334 330 328 326 324 324 323 322 323 325 326 325 324 324 323 322 320 319 317 317 317 316 315 315 314 313 314 316 317 316 314 312 310 311
330 329 330 330 330 330 330 331 331 331 331 331 332 331 331 329 327 327 329 329 329 329 328 328 328 327 327 327 327 327 328 330 330 330 330 330 329 330 331 332 329 326 325 324 323 322 322 322 323 325 325 324 323 323 321 319 316 315 315 316 317 318 317 316 315 314 315 316 317 316 314 312 311 312
330 329 330 331 331 331 331 332 331 331 331 331 332 331 331 330 328 328 330 330 330 328 328 327 327 326 326 326 326 326 326 326 326 326 327 327 326 326 326 327 325 324 324 323 323 323 323 323 324 325 324 324 323 321 318 316 314 313 314 315 315 315 314 314 314 313 313 314 315 314 312 312 312 313
331 330 331 332 332 332 332 332 331 331 331 331 331 331 331 330 329 329 330 330 329 328 327 326 326 326 326 326 326 326 326 326 326 326 326 326 326 325 325 325 324 324 323 323 322 323 324 323 324 324 324 323 323 320 317 315 314 313 313 313 313 313 313 312 311 311 311 312 313 313 313 313 314 315
331 331 331 331 332 332 332 331 331 331 331 331 331 331 330 330 330 329 329 329 328 327 326 325 324 324 325 325 326 325 325 325 325 325 325 325 325 325 324 324 324 324 324 323 322 323 323 323 324 324 323 322 321 320 318 316 315 313 313 312 312 312 312 311 310 311 312 313 313 314 314 313 313 314
330 330 330 330 331 331 331 331 330 330 330 330 329 329 329 329 329 329 329 329 328 327 325 324 324 323 324 324 324 324 324 324 324 324 324 324 323 323 323 324 324 323 323 324 323 322 323 323 323 323 323 322 321 321 319 318 316 315 313 312 313 312 312 311 311 313 313 313 312 312 313 313 313 314
Wind_Speed
22 21 19 18 15 14 16 16 14 14 14 14 14 14 14 12 6 3 4 6 11 19 21 21 22 25 27 27 26 25 24 22 20 21 22 20 18 17 16 17 16 16 16 15 15 14 14 14 13 14 14 15 15 14 14 13 13 12 12 13 13 13 12 12 12 12 12 11 11 12 13 14 14 15
21 22 22 21 20 17 17 18 16 16 15 16 17 16 16 16 13 9 6 6 12 18 21 22 20 21 23 25 27 28 26 24 22 23 23 21 19 17 17 17 17 16 16 16 16 16 16 15 14 14 15 15 15 15 15 15 14 13 13 13 13 12 12 12 12 12 11 11 11 12 12 13 14 14
20 21 23 24 24 22 21 20 19 18 16 16 17 18 18 18 18 17 11 6 12 18 20 22 22 21 21 22 25 29 28 26 24 24 24 22 20 18 18 18 18 17 16 16 17 17 17 17 16 15 15 15 15 15 15 15 15 14 13 13 12 12 12 12 12 12 12 12 12 12 13 13 14 14
22 22 23 24 26 25 24 24 23 21 20 18 17 17 19 19 19 21 18 10 12 19 19 18 20 20 20 22 24 28 29 28 26 26 25 23 21 20 20 20 19 18 17 17 17 18 18 17 16 15 14 14 14 14 14 14 14 14 13 12 12 12 12 13 13 13 13 13 13 13 14 14 14 14
25 25 24 24 25 26 26 27 27 26 24 22 21 19 19 21 21 22 22 17 15 19 20 18 18 18 18 21 24 26 29 29 28 27 27 25 23 23 22 22 21 21 20 19 18 18 18 17 15 14 14 13 13 12 12 12 12 12 12 12 12 12 13 13 14 14 14 14 14 14 14 14 14 14
29 28 27 27 25 25 26 28 30 31 29 27 25 24 22 23 24 23 24 21 17 20 24 23 22 20 19 21 23 26 29 30 30 29 29 27 26 25 24 23 22 21 21 21 21 21 19 17 16 15 14 14 13 12 12 11 11 11 11 11 12 12 13 14 14 14 13 13 13 13 13 13 13 13
31 31 31 30 29 27 27 28 30 31 32 31 30 29 27 26 27 26 26 24 21 21 24 25 25 24 23 22 23 25 28 30 31 31 30 29 27 26 25 25 23 21 21 22 23 22 20 18 17 17 17 16 14 13 12 12 12 11 10 10 11 12 13 13 12 12 11 11 10 10 10 11 11 12
34 34 34 33 32 31 31 31 31 31 32 33 33 33 32 31 30 29 28 28 26 24 23 25 26 26 26 25 23 24 28 30 32 33 32 30 29 28 27 26 24 22 21 22 23 22 21 20 18 18 18 18 16 15 14 13 12 11 10 10 11 11 11 10 10 9 8 8 8 8 9 10 11 11
36 36 36 36 35 34 34 34 33 33 33 33 34 35 35 34 32 31 30 30 30 28 26 28 28 26 25 26 24 25 28 31 32 33 33 32 31 30 30 29 27 24 22 22 21 20 20 20 19 18 19 19 17 16 15 14 13 12 10 10 11 10 8 7 7 6 6 6 7 8 9 10 10 10
37 38 38 38 37 36 36 37 36 35 34 34 35 36 36 36 34 32 31 31 31 31 31 31 30 28 26 27 27 27 28 31 32 33 33 33 33 33 33 32 30 28 26 24 23 21 21 21 20 19 19 19 18 17 16 15 15 13 11 11 11 10 8 7 6 6 6 6 7 8 9 10 11 12
39 39 39 39 38 37 38 39 38 36 36 36 36 37 37 36 33 32 32 32 31 31 31 30 31 31 30 28 29 28 28 30 32 33 32 32 34 35 35 35 33 31 29 27 26 24 22 21 21 21 20 19 19 18 18 17 16 14 13 13 13 11 9 8 7 6 6 6 7 8 9 11 13 14
39 39 39 39 39 39 39 40 39 38 38 37 37 38 37 35 33 32 32 31 30 30 30 30 30 30 29 29 29 28 26 27 31 34 33 33 33 35 36 36 35 32 31 30 29 27 25 24 23 23 22 21 21 20 19 19 17 16 15 15 14 13 11 10 8 6 6 7 8 9 10 12 14 14
38 38 39 40 40 40 40 41 41 41 40 39 38 38 37 36 34 33 33 31 30 30 29 29 29 27 27 28 28 28 29 31 34 34 32 32 33 32 34 36 36 33 32 31 31 30 29 28 27 26 25 24 23 22 22 21 20 19 18 16 15 14 13 12 9 7 7 8 8 9 10 11 12 13
38 38 39 40 41 41 41 42 42 43 42 42 42 41 39 38 36 35 34 33 32 30 29 30 29 26 26 30 31 33 35 36 35 32 31 32 32 28 27 30 34 35 34 32 33 34 33 31 29 29 28 27 25 25 25 24 22 21 19 17 16 15 15 14 11 9 8 8 9 9 9 10 11 11
38 38 39 39 39 40 41 42 44 44 45 45 45 44 43 42 40 38 36 35 34 32 31 32 30 27 28 33 35 36 36 35 35 35 33 32 30 26 22 23 28 34 35 34 34 36 35 33 31 32 31 29 28 28 27 25 23 22 20 17 16 16 16 15 13 10 9 8 9 8 7 9 8 6
38 37 38 38 38 39 40 42 43 44 45 47 47 48 47 46 46 45 43 40 36 34 34 33 32 31 32 35 36 36 37 36 36 35 34 32 32 30 27 25 28 34 35 34 34 36 36 33 32 33 33 31 31 30 28 26 24 22 20 18 17 17 17 17 14 11 10 9 9 7 6 6 4 3
38 38 38 37 38 39 39 40 41 42 44 46 47 49 49 49 49 49 50 48 44 41 38 36 37 38 37 37 40 41 39 37 34 32 33 34 33 32 32 34 38 38 34 32 32 33 35 34 32 34 34 32 32 31 29 26 24 23 22 19 18 18 18 17 15 12 11 10 8 6 5 4 2 1
38 39 38 38 39 39 39 38 39 40 42 43 44 47 49 50 52 52 53 54 51 48 44 41 43 45 42 41 46 46 40 36 36 36 36 37 37 37 40 42 42 38 34 31 28 27 32 34 33 34 34 32 32 32 30 28 25 24 22 20 19 18 18 17 15 13 12 10 8 5 4 4 3 1
40 40 39 39 40 40 40 39 38 39 39 39 41 42 45 48 51 53 55 56 54 53 52 50 50 51 48 47 49 47 40 39 42 42 41 42 40 39 38 37 35 33 32 32 28 24 29 33 33 34 35 33 32 32 31 30 27 24 22 21 21 19 18 18 16 14 13 10 7 6 4 5 5 4
40 40 40 40 40 41 41 40 39 39 38 39 39 40 42 44 46 52 57 56 54 55 56 56 56 56 54 52 51 48 44 42 43 41 40 39 35 30 28 28 31 32 31 34 33 27 26 30 32 33 34 33 33 33 32 30 27 24 23 22 22 21 19 18 17 15 13 10 7 6 6 6 6 6
40 40 41 41 41 41 42 40 40 39 38 39 40 39 40 40 42 51 52 47 48 53 56 58 59 59 58 55 53 51 48 46 44 38 36 36 32 27 23 22 26 30 31 35 37 31 27 29 31 32 32 32 32 30 29 29 27 24 25 24 22 21 20 19 18 16 13 10 8 7 7 7 7 7
41 41 42 42 41 43 43 41 41 40 38 40 41 40 39 38 43 50 45 37 41 46 48 53 57 59 60 59 57 55 52 50 47 42 41 39 34 30 26 24 25 27 32 38 37 31 29 29 30 29 26 26 30 30 27 27 27 25 24 24 23 22 21 19 19 16 13 11 9 8 9 9 8 9
42 41 41 40 41 43 43 42 42 40 39 41 42 42 39 39 45 48 40 35 39 40 39 44 49 54 59 60 60 61 60 57 53 51 51 45 36 33 32 30 23 17 24 36 38 33 30 30 30 29 20 12 19 28 28 26 27 27 26 25 24 22 21 20 19 16 14 12 11 10 10 9 9 10
39 39 39 39 40 42 43 44 43 41 41 42 42 43 40 40 46 47 41 39 41 38 37 41 44 48 53 55 57 59 60 59 57 56 55 49 43 40 38 36 30 23 26 36 40 37 33 30 30 32 26 14 11 19 27 28 28 28 28 27 25 23 23 22 19 17 15 13 12 12 11 10 10 11
37 37 37 38 38 39 40 41 40 39 40 40 42 43 43 44 48 47 44 43 37 31 31 37 41 44 47 46 48 51 53 55 56 56 56 54 52 49 45 39 35 33 33 35 38 39 33 29 29 32 31 23 14 16 23 27 29 31 30 28 26 25 25 24 21 18 16 14 14 13 12 11 11 11
35 35 35 34 33 32 32 33 34 35 36 36 39 42 44 47 49 48 48 44 32 25 31 38 39 41 42 41 42 44 46 49 52 52 54 55 56 56 55 50 43 39 37 34 36 39 35 31 32 32 29 25 19 18 20 22 27 31 31 28 26 25 25 24 22 20 17 16 16 14 12 12 12 11
29 28 26 24 24 24 25 27 28 30 31 32 35 38 40 43 45 45 47 45 35 29 35 40 40 40 41 40 40 41 43 46 49 50 52 55 57 57 57 56 51 47 43 37 37 42 40 36 36 37 34 28 21 17 18 19 23 29 31 28 26 25 24 24 22 20 19 18 16 14 13 13 12 10
25 21 20 19 20 21 22 23 25 26 28 30 32 35 36 38 40 40 41 42 37 30 31 35 39 42 43 43 44 45 46 47 48 51 53 52 51 50 50 50 48 46 44 43 44 45 44 42 40 40 40 35 26 20 18 19 22 29 31 28 26 25 24 23 22 20 19 17 15 15 15 13 12 11
24 23 24 24 25 25 26 26 27 28 30 31 32 34 35 35 37 38 38 38 36 30 28 31 35 39 43 46 48 49 49 48 46 47 46 41 39 43 45 44 45 45 46 48 48 47 47 47 44 40 39 38 33 28 24 22 24 30 32 29 27 26 24 23 22 21 19 17 16 16 16 14 12 11
19 19 20 21 21 21 21 22 23 24 25 26 27 28 29 30 31 32 33 33 32 32 32 32 33 37 41 44 47 48 48 46 43 42 40 36 37 44 45 42 42 45 47 50 51 51 50 49 45 42 39 37 34 32 30 27 25 29 32 30 26 23 22 23 23 21 19 18 17 17 16 14 12 11
11 12 13 14 14 15 16 17 17 18 19 21 22 23 24 26 27 27 28 30 31 33 35 35 36 39 40 42 44 46 45 44 41 40 40 39 40 45 45 40 39 43 47 50 52 54 55 52 48 45 41 36 32 32 33 32 29 29 31 31 27 22 22 24 23 21 19 17 17 17 16 13 12 11
7 8 9 9 9 10 12 13 14 16 18 21 23 23 24 26 27 27 28 28 30 32 33 35 37 39 40 41 43 44 43 42 40 38 40 42 42 43 41 36 34 38 41 43 48 52 53 53 51 47 43 39 35 33 32 30 29 31 30 29 28 23 20 21 22 20 18 16 16 16 15 13 12 11
1 2 4 7 9 12 15 17 19 21 23 24 26 27 27 28 28 28 28 28 29 30 31 34 36 37 39 41 42 42 42 42 40 38 39 41 40 40 40 38 37 38 38 40 45 48 47 46 46 44 42 40 39 37 33 27 25 27 27 26 26 24 20 19 20 19 17 16 16 15 14 13 13 11
6 8 11 13 15 16 17 18 19 20 22 24 26 28 29 29 28 28 28 28 29 31 32 35 37 38 39 40 41 40 40 40 39 38 39 41 40 38 37 36 37 39 40 39 41 43 42 41 39 37 36 35 33 34 35 31 25 24 23 23 24 25 23 21 20 17 16 16 16 14 13 14 13 11
11 14 15 16 15 15 14 14 16 18 20 22 24 25 27 27 28 28 28 29 31 32 34 36 38 40 40 40 41 40 38 38 37 35 37 41 40 39 38 36 35 37 39 37 37 41 44 42 38 32 28 26 23 21 23 24 22 21 22 22 22 23 23 21 19 17 16 16 16 14 14 15 13 10
15 15 15 14 14 14 14 15 16 17 19 20 20 21 22 24 26 27 29 31 32 33 34 35 37 40 41 41 41 40 38 37 35 33 33 35 36 36 36 35 36 38 38 35 35 40 43 45 43 34 22 15 13 10 11 16 17 16 19 22 21 21 19 17 15 15 16 17 17 16 15 15 13 9
15 15 14 13 14 14 14 15 16 17 17 18 19 20 21 22 25 27 29 31 32 32 33 35 37 39 41 41 41 39 37 34 32 30 29 31 32 31 29 30 32 32 32 35 40 44 45 46 46 38 23 12 9 7 8 14 16 15 16 18 18 18 17 15 14 16 17 17 16 17 17 16 12 9
14 14 13 13 13 13 13 13 15 16 17 18 20 21 21 22 24 27 29 31 32 33 34 35 36 38 40 40 39 36 32 29 28 28 27 26 27 27 29 31 31 28 27 30 36 42 44 42 41 38 28 14 8 7 8 10 13 15 17 17 16 16 16 16 15 16 18 17 16 17 18 15 11 9
13 13 12 12 11 10 11 13 14 15 17 18 18 19 20 22 24 27 29 30 32 32 33 34 35 37 39 38 36 33 30 25 23 23 23 24 26 28 30 28 26 28 30 30 29 33 37 37 37 38 34 24 17 17 17 14 12 15 15 15 16 15 15 15 16 17 17 17 17 18 17 14 12 11
13 12 10 9 9 9 10 12 13 14 15 16 16 16 17 20 23 26 28 29 30 31 31 33 35 36 36 35 31 27 26 25 24 21 18 17 19 24 29 26 23 24 27 27 25 24 28 33 35 36 36 31 26 22 18 13 11 11 10 11 14 16 15 14 16 17 18 18 19 19 17 15 13 13
12 11 9 8 8 9 10 12 13 13 14 14 14 14 15 18 20 23 25 26 27 28 29 30 32 33 33 33 29 22 16 12 10 7 4 12 18 15 2 12 20 22 20 19 21 22 26 32 34 32 28 25 23 20 14 9 8 9 7 7 10 12 11 11 13 16 17 18 19 18 16 15 14 13
11 10 8 8 8 10 11 11 12 13 13 13 13 14 16 17 19 20 22 23 25 25 26 28 29 30 30 30 29 26 26 27 24 21 22 28 36 40 35 28 27 28 25 22 26 31 32 31 29 25 21 20 20 17 12 9 10 11 10 9 9 10 10 10 12 14 15 17 17 16 15 13 10 9
9 9 8 9 10 10 11 11 11 12 13 13 13 14 16 17 18 18 20 21 22 23 24 25 27 28 29 29 30 29 29 28 27 26 28 32 37 41 41 39 37 36 32 31 32 34 31 27 23 21 18 18 18 16 14 13 13 13 13 12 11 11 11 11 12 13 13 15 16 16 16 14 9 7
8 8 9 10 11 11 11 12 12 12 13 13 13 14 15 16 16 16 17 18 19 20 21 22 24 26 27 29 32 33 32 31 29 27 28 31 35 39 42 42 41 38 36 35 34 31 28 24 20 17 17 17 16 16 15 14 14 15 14 13 14 14 12 11 11 11 11 12 13 14 16 17 16 14
8 9 10 10 11 10 10 10 10 11 12 12 13 14 15 15 15 15 16 17 17 17 17 18 20 22 23 26 29 30 29 31 33 33 32 32 33 36 38 39 38 36 34 34 34 30 27 24 19 14 14 15 15 16 16 16 16 16 16 15 15 14 12 11 9 9 10 12 12 13 15 16 16 17
Wind_Direction
217 216 216 216 217 211 210 218 222 227 236 239 241 242 233 219 201 194 224 231 224 222 223 226 228 230 232 235 237 237 238 236 230 229 232 235 236 237 241 243 245 249 249 248 248 249 252 253 255 257 257 259 260 261 263 265 269 274 279 285 288 289 288 288 290 289 289 290 289 289 290 290 290 291
224 221 220 220 220 215 214 221 227 230 238 242 242 244 243 235 223 206 203 236 234 224 223 228 231 234 233 234 236 237 239 237 232 231 234 238 239 239 240 241 243 248 249 248 248 249 251 253 256 258 259 261 262 262 264 265 268 272 278 284 286 288 289 290 291 291 291 292 291 290 289 289 289 289
230 228 225 222 222 221 219 220 226 232 236 240 243 244 242 240 237 227 212 223 241 231 228 232 234 239 243 239 235 236 239 237 233 233 236 241 243 241 240 241 241 243 245 246 248 249 250 252 257 260 260 262 261 261 262 263 265 269 274 280 283 285 289 290 292 293 293 293 293 292 292 291 292 291
232 233 232 228 226 225 223 221 224 229 233 237 241 245 243 239 239 235 222 221 244 238 234 237 239 242 248 246 240 238 239 237 234 234 238 242 244 242 241 242 242 242 243 244 246 247 248 252 258 260 260 260 261 260 259 260 262 265 271 277 281 284 288 290 290 291 291 290 289 289 290 292 293 294
233 234 235 234 232 229 227 225 225 226 230 235 237 242 244 239 236 232 225 225 244 248 243 240 242 244 248 249 245 241 239 235 232 233 237 241 243 244 245 246 245 244 243 244 246 248 249 251 251 253 254 255 256 257 257 257 259 263 268 273 278 282 285 286 286 286 285 285 285 287 290 293 295 297
233 233 235 236 235 232 231 230 228 227 228 231 235 238 240 239 236 233 230 228 236 248 248 245 245 246 247 249 246 242 239 235 231 231 234 238 241 244 246 247 247 247 246 248 251 252 252 246 240 243 247 249 251 252 252 252 254 257 262 268 276 279 281 282 283 283 282 283 285 289 294 297 299 302
232 232 234 236 235 233 234 235 233 231 230 231 235 237 238 240 239 236 235 234 235 244 251 250 247 245 246 247 245 242 239 236 233 233 237 240 241 241 242 244 247 247 248 250 253 254 250 239 235 241 244 246 249 249 248 248 248 251 257 265 271 273 278 282 282 282 282 284 289 295 300 304 305 305
231 230 232 236 236 233 234 237 237 235 234 234 235 238 239 240 241 240 239 239 241 244 251 254 251 247 245 246 245 241 237 235 235 237 240 243 243 241 240 242 245 245 246 250 251 250 243 235 236 242 242 243 246 247 247 246 245 247 251 259 265 269 275 281 279 279 281 285 295 305 311 312 310 309
231 231 232 235 235 232 233 236 238 237 237 237 237 239 240 240 242 243 241 241 242 243 247 253 256 252 246 245 244 239 235 236 237 239 241 244 244 243 241 242 243 243 244 245 242 237 234 234 239 242 240 239 242 244 245 244 244 245 248 253 257 261 269 272 269 269 274 285 301 313 318 319 319 317
232 232 234 236 234 232 232 235 238 238 238 238 237 239 241 241 241 242 242 242 241 242 245 250 254 253 248 244 242 239 237 238 239 240 241 243 244 243 242 241 241 241 241 240 235 231 232 235 238 240 240 238 238 241 242 241 243 244 246 250 250 252 257 256 255 261 270 286 302 312 319 324 326 324
234 234 236 237 235 233 234 236 238 239 239 238 238 239 241 241 240 240 241 241 240 241 244 246 249 251 250 247 244 243 241 241 242 241 240 240 241 240 240 240 240 240 240 239 236 234 235 237 238 239 242 241 239 239 240 240 242 244 244 245 244 246 250 248 249 262 276 289 300 306 316 323 324 321
235 236 237 238 238 237 237 238 240 240 239 239 239 240 241 239 239 239 239 239 239 240 242 245 247 248 249 248 247 245 241 237 238 238 236 237 238 238 238 240 240 240 240 240 239 237 237 239 238 237 239 241 239 238 237 237 239 242 241 240 241 244 247 245 248 267 282 289 295 300 309 318 320 318
236 236 238 239 240 240 240 241 243 243 243 241 240 241 240 238 237 237 237 236 236 237 240 243 245 245 245 244 242 240 235 233 236 237 234 236 240 240 240 241 241 240 240 242 242 241 241 241 239 236 237 239 238 235 234 235 238 239 238 236 239 243 245 243 244 261 277 281 288 294 303 313 319 319
237 238 239 240 241 242 243 244 245 246 246 245 245 245 244 240 237 234 234 234 232 233 236 239 239 239 240 240 237 237 237 236 236 236 233 235 238 239 240 244 244 240 238 239 241 243 244 244 240 238 238 239 237 234 233 235 237 238 237 235 236 240 243 240 239 248 262 270 278 284 299 317 324 325
238 239 240 241 242 243 243 244 246 247 247 247 248 249 248 246 242 238 234 233 231 230 233 238 237 235 238 240 238 238 239 238 235 234 232 232 233 230 231 241 244 241 236 233 237 242 245 244 240 239 239 239 238 236 236 237 238 237 237 234 232 237 241 236 234 241 250 259 267 273 299 323 330 341
239 240 241 243 243 243 244 245 246 246 247 248 249 250 250 249 248 246 243 239 234 231 233 237 237 235 238 242 241 238 238 237 235 234 232 230 229 227 226 231 238 242 238 230 231 239 242 241 239 239 239 239 238 239 238 237 237 237 237 236 235 237 238 233 230 236 244 250 254 265 300 321 335 25
239 241 242 244 244 245 245 246 246 246 247 249 249 250 250 249 249 249 249 247 243 239 236 237 239 240 238 240 243 242 239 236 234 233 232 231 230 228 229 232 236 240 237 225 224 233 238 238 238 238 238 239 239 240 239 236 237 239 240 240 237 235 234 231 228 233 240 241 241 255 293 305 303 67
240 242 243 244 246 247 247 246 246 246 247 248 249 249 248 248 248 249 249 249 247 244 242 240 243 246 243 242 247 248 242 236 234 232 232 232 231 230 234 238 239 240 236 225 220 228 235 235 235 237 237 238 239 240 239 239 240 242 240 236 232 232 233 229 225 230 235 233 234 249 279 279 253 230
242 243 244 245 247 249 249 248 247 248 248 248 248 248 248 248 248 248 248 247 246 245 244 244 246 249 249 248 251 251 246 241 240 239 238 238 236 235 238 242 241 239 236 227 219 224 233 231 231 235 237 237 238 239 240 241 241 239 235 231 231 234 233 225 222 229 230 227 232 247 261 260 245 240
244 245 246 247 249 250 251 251 250 250 250 249 249 248 249 250 250 251 251 249 247 246 247 247 248 251 251 251 252 252 249 246 245 242 241 241 238 236 238 240 238 236 233 227 221 222 232 230 228 233 236 236 236 238 238 237 236 232 229 229 232 232 226 219 220 225 226 226 234 243 251 253 243 244
245 246 247 248 249 251 253 253 253 253 251 250 250 249 251 252 252 255 255 252 250 249 249 249 250 252 253 252 252 253 251 249 246 239 236 236 231 227 230 235 234 231 230 226 220 220 229 229 226 229 233 233 234 235 233 231 228 226 226 228 227 223 217 216 219 220 221 228 235 238 242 245 242 248
246 247 248 249 250 252 254 255 255 255 252 251 250 250 252 253 254 256 257 255 254 254 252 252 252 253 254 252 252 252 251 250 246 238 235 235 227 222 226 231 231 231 230 226 218 215 225 228 223 222 225 229 231 228 226 226 223 220 223 224 221 217 214 214 214 214 221 231 231 233 239 238 239 252
248 249 250 251 251 254 256 257 256 256 253 252 252 252 251 252 255 259 260 258 257 255 253 253 252 252 253 252 250 250 249 248 245 240 239 237 228 224 227 228 225 227 231 225 215 211 219 222 216 213 209 215 228 224 222 223 219 218 220 217 214 215 213 211 210 212 222 229 225 228 236 236 239 255
249 251 252 253 254 256 258 259 259 258 256 254 254 253 250 251 257 262 264 261 259 257 256 256 255 254 254 252 250 249 247 246 244 242 240 237 231 228 228 225 221 222 228 223 214 210 216 216 212 210 207 206 214 214 216 219 216 215 215 213 214 214 208 205 206 211 218 223 223 228 234 235 242 256
248 251 253 255 256 258 261 262 263 262 261 260 258 256 255 257 262 266 266 265 264 263 264 263 261 259 258 254 251 249 246 245 243 241 239 237 233 231 229 226 223 225 229 226 215 210 211 211 207 205 207 211 207 199 206 213 213 211 211 214 217 214 206 204 206 209 215 218 219 226 233 236 243 251
247 251 254 257 259 261 264 266 267 268 268 266 264 263 263 265 266 267 267 268 269 267 266 267 266 263 261 258 254 251 248 246 245 242 240 238 235 233 232 229 225 226 228 226 220 214 212 210 207 200 199 205 204 195 195 201 206 209 209 213 217 213 208 208 208 210 213 213 217 228 235 237 241 245
248 252 256 258 261 263 265 267 268 269 270 270 269 270 272 273 273 273 273 273 273 265 261 265 268 267 264 262 260 256 252 249 246 243 242 239 237 236 235 232 229 229 226 223 220 218 214 212 210 204 200 199 194 190 191 191 198 204 205 207 210 209 208 210 212 212 211 210 217 227 232 233 235 238
247 253 258 261 264 266 268 269 271 272 273 276 278 279 280 282 285 287 285 282 280 270 256 254 259 262 264 263 262 260 257 253 250 246 244 240 236 237 239 236 233 230 224 220 220 217 215 214 212 208 205 200 191 188 191 187 188 194 197 198 201 205 208 212 213 211 207 208 216 222 227 232 232 234
258 264 268 270 271 272 274 276 278 280 281 284 286 287 289 292 293 294 292 288 285 278 265 257 256 258 261 262 262 263 261 259 255 250 245 239 233 234 239 238 233 228 222 218 218 217 216 215 211 207 206 202 197 194 189 182 184 189 191 193 198 204 208 208 208 207 204 208 217 223 230 232 228 231
261 264 268 272 276 280 285 288 292 295 296 297 299 298 299 301 301 300 297 292 287 283 278 274 269 266 267 268 268 268 266 262 258 251 243 233 227 229 233 231 228 226 222 218 216 216 217 214 209 206 203 199 199 199 191 182 182 186 190 193 194 198 203 203 203 206 207 212 219 226 230 228 225 230
254 264 274 284 291 297 301 302 305 310 312 315 316 315 315 314 312 308 303 297 292 288 285 283 281 279 278 276 274 272 269 264 259 250 239 229 224 224 225 223 221 220 219 217 215 215 215 212 207 204 199 194 198 202 197 190 183 181 187 194 194 194 199 202 205 209 211 214 221 226 226 224 222 221
264 276 287 300 310 318 321 323 328 332 335 338 337 334 331 327 322 317 312 305 299 295 292 290 288 285 283 280 276 274 271 267 262 251 237 229 225 219 215 215 216 214 212 211 211 211 211 208 203 200 197 196 199 198 193 190 187 184 186 192 197 200 203 203 206 207 206 210 218 221 221 221 215 210
272 324 348 359 4 3 2 359 356 352 349 347 345 341 336 331 326 322 317 310 304 300 297 292 289 287 284 280 277 274 270 267 263 253 238 230 225 217 211 211 212 209 205 205 204 203 202 200 197 195 196 200 203 199 190 183 183 188 191 192 196 203 207 203 200 198 198 206 216 219 218 217 211 212
70 50 41 34 25 18 13 5 357 352 348 344 342 341 338 334 330 326 320 314 308 304 298 292 288 285 282 279 276 273 268 265 262 254 241 232 226 219 213 213 213 208 204 201 198 192 188 187 186 186 187 190 193 195 192 186 182 185 192 195 199 205 209 207 205 204 205 212 219 222 219 215 213 222
59 47 41 37 28 19 12 3 354 349 347 342 338 338 337 336 335 331 326 323 319 311 303 297 292 287 282 280 277 274 269 266 263 254 241 233 227 221 215 212 211 208 205 200 191 181 175 171 167 162 161 163 164 172 186 189 185 183 188 197 205 209 211 211 211 212 211 214 220 225 221 216 220 233
57 48 42 36 26 18 12 5 358 352 347 343 341 340 338 339 340 338 334 331 325 317 310 304 298 292 287 283 280 276 271 268 265 257 244 232 226 223 220 216 212 208 201 192 182 172 166 163 160 152 143 140 141 146 171 180 179 185 196 202 208 213 214 213 210 209 211 215 221 225 222 221 228 238
55 49 43 36 26 19 13 3 354 350 347 345 346 345 341 338 338 339 338 335 329 322 317 311 304 299 294 289 285 279 272 266 264 261 253 239 227 222 219 215 213 209 196 181 173 168 164 163 160 153 144 138 138 141 160 170 176 195 211 213 215 216 213 208 206 207 211 217 224 224 221 224 236 242
54 48 42 34 25 17 10 360 352 350 349 349 350 348 345 341 340 340 341 339 334 329 326 320 315 311 306 299 291 284 275 268 264 261 256 245 233 223 217 214 209 198 181 172 171 168 164 161 156 148 141 135 136 137 137 153 181 208 221 225 227 222 210 205 207 209 212 219 225 224 223 231 245 246
54 49 39 29 19 10 3 358 354 352 352 352 353 351 347 345 345 345 345 343 340 338 335 332 329 327 323 316 305 292 281 273 269 266 262 254 242 231 225 217 200 180 168 163 165 166 159 150 146 145 143 143 150 153 147 152 185 214 223 227 228 223 213 209 210 212 216 222 224 222 225 238 249 248
51 48 38 24 14 7 2 0 360 1 359 356 355 356 352 350 351 350 348 347 347 345 343 342 342 342 341 339 331 312 292 279 273 272 270 266 259 248 235 214 182 163 159 153 150 151 144 135 137 143 144 145 147 145 139 148 179 200 210 219 222 223 222 217 211 212 218 222 222 223 232 245 251 249
47 45 36 24 16 12 10 8 7 7 5 360 359 0 358 357 358 357 355 357 359 357 355 354 354 354 355 358 2 4 3 353 332 324 50 75 62 46 59 171 145 129 126 124 117 111 110 116 126 132 133 133 132 125 118 130 158 170 185 205 209 208 210 211 212 215 221 224 224 230 243 252 255 255
48 45 36 30 27 24 22 20 16 15 14 11 9 7 3 2 3 1 2 6 10 9 8 7 7 7 8 11 18 30 45 55 60 65 77 84 80 72 69 76 89 93 92 92 97 100 103 111 121 124 121 124 127 123 126 147 161 167 176 181 180 182 186 198 212 223 232 237 238 241 247 248 246 250
50 47 42 40 41 39 34 31 27 25 24 23 19 15 12 9 6 4 6 12 15 15 17 20 23 25 25 28 33 37 43 49 58 67 77 85 91 92 89 87 89 93 94 94 98 103 110 118 126 126 125 129 134 137 148 165 174 181 185 184 186 193 199 207 219 228 238 244 245 246 246 243 240 242
54 51 47 47 48 45 39 36 35 33 33 34 32 28 25 21 14 11 14 16 18 21 25 30 35 38 41 46 50 52 52 53 53 56 64 74 85 93 98 100 100 101 102 103 104 110 119 127 131 131 130 136 147 156 164 176 190 196 197 195 197 202 210 221 228 229 233 238 241 240 238 238 242 249
61 58 54 51 49 44 39 38 39 37 37 40 40 36 34 30 24 22 22 20 20 25 31 35 37 42 49 57 60 61 64 68 70 68 66 69 76 84 91 98 103 106 110 114 115 117 123 126 126 130 139 150 165 176 185 198 208 207 204 204 207 211 220 227 222 217 226 237 241 243 244 244 246 251